Regional Weather Roundup
Issued by NWS Bismarck, ND

Home | Current Version | Previous Version | Text Only | Print | Product List | Glossary On
Versions: 1 2 3 4 5 6 7 8 9 10 11 12 13 14 15 16 17 18 19 20 21 22 23 24 25 26 27 28 29 30 31 32 33 34 35 36 37 38 39 40 41 42 43 44 45 46 47 48 49 50
000
ASUS43 KBIS 080610
RWRBIS

NWR BROADCAST TEXT
NATIONAL WEATHER SERVICE BISMARCK ND
1200 AM CST THU DEC 08 2016

NOTE: "FAIR" INDICATES FEW OR NO CLOUDS BELOW 12,000 FEET WITH NO
SIGNIFICANT WEATHER AND/OR OBSTRUCTIONS TO VISIBILITY.


CITY           SKY/WX    TMP DP  RH WIND       PRES   REMARKS
WILLISTON      CLOUDY     0  -7  72 W16       30.60S WCI -20
MINOT          LGT SNOW   6   1  80 W28       30.46R WCI -17
MINOT AFB      PTCLDY     4  -1  80 NW26      30.46R HAZE    WCI -19
BISMARCK       LGT SNOW   5   1  83 NW17      30.50R FOG     WCI -14
DICKINSON      CLEAR     -2  -8  76 NW15      30.48R WCI -22
GARRISON         N/A      4   0  83 NW25G32   30.47R WCI -19
HETTINGER ARPT CLEAR     -1  -7  75 NW17      30.50R WCI -22
JAMESTOWN      CLOUDY     8   4  83 NW29G37   30.34R BLWGSNOWWCI -15
CARRINGTON     FOG        7   3  85 NW29G36   30.38R VSB 3/4 WCI -16
HAZEN          CLOUDY     7   0  72 W10G24    30.53R WCI  -8
RUGBY          LGT SNOW   5   3  92 NW23G29   30.40S WCI -17
STANLEY        CLOUDY     3   0  85 NW20G31   30.49R FOG     WCI -18
TIOGA          CLOUDY     0  -2  92 NW16      30.52R WCI -21
WATFORD CITY   MOCLDY     0  -8  71 W13       30.58R WCI -18
$$

CITY           SKY/WX    TMP DP  RH WIND       PRES   REMARKS
GRAND FORKS    LGT SNOW  19  15  84 NW23      30.27R FOG     WCI   2
GRAND FORKS AF FLURRIES  18  13  80 N20G25    30.28R WCI   1
DEVILS LAKE    LGT SNOW  12   8  84 NW20G30   30.34R FOG     WCI  -6
FARGO          LGT SNOW  18  12  77 NW24G36   30.25R WCI   0
CANDO          CLOUDY    10   7  85 NW21G30   30.38R WCI  -9
CAVALIER       LGT SNOW  18  14  86 NW25G32   30.29R WCI  -1
GRAFTON        FLURRIES  19  16  86 NW25G32   30.29R WCI   2
GWINNER        CLOUDY    14  10  85 NW23      30.32R WCI  -5
LANGDON        LGT SNOW  12   9  85 NW24G32   30.28R WCI  -8
ROLLA          LGT SNOW   7   5  92 NW30G36   30.35R WCI -17
WALHALLA         N/A     16  16 100 NW17G28   30.31R WCI   0
$$

CITY           SKY/WX    TMP DP  RH WIND       PRES   REMARKS
ABERDEEN       FLURRIES  10   2  69 NW26G35   30.40R WCI -11
MOBRIDGE       CLOUDY     5  -3  69 NW25G35   30.44S WCI -18
BUFFALO          N/A      1  -5  75 NW16      30.42R WCI -19
RAPID CITY     CLEAR      4  -5  66 NW18      30.49R WCI -16
GLASGOW        MOCLDY    -2  -9  72 NW10      30.63R WCI -19
SIDNEY         CLEAR     -2  -8  76 NW5       30.64R WCI -12
WOLF POINT     MOCLDY     0  -8  69 W12       30.66R WCI -17
GLENDIVE       CLOUDY    -1  -8  72 NW7       30.61R WCI -14
MILES CITY     CLEAR     -1  -9  68 W6        30.62R WCI -13
BAKER          CLOUDY     2  -4  76 W16       30.54R WCI -18
$$

CITY           SKY/WX    TMP DP  RH WIND       PRES   REMARKS
BILLINGS       PTCLDY     2  -6  69 CALM      30.51S
GREAT FALLS    CLOUDY     0  -7  72 N3        30.52S
REGINA         MOCLDY     0  -4  85 NW13      30.57R WCI -18
ESTEVAN        FLURRIES  -2  -6  84 NW14      30.53R WCI -21
$$




USA.gov is the U.S. government's official web portal to all federal, state and local government web resources and services.